Location: Unspecified
(0.0000°N, 0.0000°E)
Time: 15:29:37
(UTC+00:00)

Courier 1B - Pass Details

Date: 15 February 2026
Orbit: 962 x 1208 km, 28.3° (Epoch: 16 March)

Event Time Altitude Azimuth Distance (km) Brightness Sun altitude
Rises 19:34:59 0° 284° (WNW) 3,878 11.7 -19.7°
Reaches altitude 10° 19:39:09 10° 306° (NW) 2,974 10.5 -20.7°
Maximum altitude 19:43:05 15° 339° (NNW) 2,659 9.8 -21.7°
Drops below altitude 10° 19:47:07 10° 12° (NNE) 3,061 9.8 -22.7°
Enters shadow 19:47:36 - 15° (NNE) 3,153 9.9 -22.8°
